Location: Saluda
(35.2377°N, 82.3468°W)
Time: 16:05:37
(UTC+00:00)

Explorer 11/Cluster Stage 4 - Pass Details

Date: 09 October 2022
Orbit: 466 x 1247 km, 28.8° (Epoch: 08 December)

Event Time Altitude Azimuth Distance (km) Brightness Sun altitude
Rises 12:20:55 0° 210° (SSW) 3,672 9.9 9.2°
Reaches altitude 10° 12:24:13 10° 194° (SSW) 2,859 9.5 9.9°
Maximum altitude 12:29:11 20° 150° (SSE) 2,356 9.9 10.9°
Drops below altitude 10° 12:34:35 10° 107° (ESE) 3,153 13.9 11.9°
Sets 12:38:26 0° 92° (E) 4,170 11.9 12.7°
